Regional Weather Roundup
Issued by NWS

Home | Current Version | Previous Version | Text Only | Print | Product List | Glossary Off
Versions: 1 2 3 4 5 6 7 8 9 10 11 12 13 14 15 16 17 18 19 20 21 22 23 24 25 26 27 28 29 30 31 32 33 34 35 36 37 38 39 40 41 42 43 44 45 46 47 48 49 50

000
ASUS43 KFSD 252102
RWRSD

WEATHER ROUNDUP FOR SOUTH DAKOTA
NATIONAL WEATHER SERVICE SIOUX FALLS SD
400 PM CDT THU AUG 25 2016

NOTE: "FAIR" INDICATES FEW OR NO CLOUDS BELOW 12,000 FEET WITH NO
SIGNIFICANT WEATHER AND/OR OBSTRUCTIONS TO VISIBILITY.


SDZ001>005-009-010-012>017-252200-
NORTHWEST AND NORTH CENTRAL SOUTH DAKOTA

CITY           SKY/WX    TMP DP  RH WIND       PRES   REMARKS
BUFFALO          N/A     65  41  41 N9        30.16F
FAITH            N/A     66  47  50 N14       30.21F
MOBRIDGE       CLOUDY    66  49  54 NW10      30.16F
$$

SDZ012>016-024>037-041>051-057-063-072>074-252200-
SOUTHWEST AND SOUTH CENTRAL SOUTH DAKOTA

CITY           SKY/WX    TMP DP  RH WIND       PRES   REMARKS
RAPID CTY ARPT MOSUNNY   66  39  37 VRB5      30.24F
PIERRE         SUNNY     71  46  40 NW16G24   30.15F
CUSTER         CLOUDY    57  45  64 E10       30.28F
ELLSWORTH AFB  MOSUNNY  N/A N/A N/A NW6       30.23F
PHILIP         SUNNY     73  44  35 N17       30.19F
PINE RIDGE     MOSUNNY   63  48  58 VRB3      30.25F
WINNER         FAIR      74  47  38 NW12      30.19F
$$

SDZ004>011-016>023-039-040-252200-
NORTHEAST SOUTH DAKOTA

CITY           SKY/WX    TMP DP  RH WIND       PRES   REMARKS
ABERDEEN       CLOUDY    66  50  56 NW13      30.14S
WATERTOWN      PTSUNNY   67  51  56 NW12      30.13S
BROOKINGS      MOSUNNY   69  53  56 NW14G23   30.13F
$$

SDZ017-020-022-023-036>040-048>070-252200-
SOUTHEAST SOUTH DAKOTA

CITY           SKY/WX    TMP DP  RH WIND       PRES   REMARKS
SIOUX FALLS    MOSUNNY   74  54  49 NW10      30.14F
HURON          SUNNY     74  46  36 W17G24    30.13F
CHAMBERLAIN    SUNNY     76  49  38 NW16      30.16F
MITCHELL       SUNNY     74  51  44 W13       30.15S
YANKTON        SUNNY     73  52  46 NW12      30.13F
$$

ABBREVIATIONS USED IN REMARKS
   TC - TEMPERATURE IN CELSIUS
  WCI - WIND CHILL INDEX
   HX - HEAT INDEX
  VSB - VISIBILITY





USA.gov is the U.S. government's official web portal to all federal, state and local government web resources and services.